[[{"header":{"parameterUnit":"m.s-1","parameterCategory":1,"la1":30.2991,"la2":30.254,"lo1":-89.0895,"lo2":-89.0444,"dy":0.0017,"dx":0.0017,"nx":28,"ny":28,"refTime":"2025-12-17T03:00:00:Z","depth":0,"parameterNumber":2,"parameterNumberName":"U-component_of_WINDS"},"data":[0,0,0,0,0,0,0,0,0,0,0,0,0,0,0,0,0,0,0,0,0,0,0,0,0,0,0,0,0,0,0,0,0,0,0,0,0,0,0,0,0,0,0,0,0,0,0,0,0,0,0,0,0,0,0,0,0,0,-3.5977,-3.5977,0,-3.5974,-3.5974,-3.5974,-3.5815,-3.5811,-3.5807,-3.5803,-3.5804,-3.5807,-3.5811,0,0,0,0,0,0,0,0,0,0,0,0,0,-3.5849,-3.5852,-3.5977,-3.5977,-3.5977,-3.5974,-3.5974,-3.5974,-3.5816,-3.5811,-3.5806,-3.5801,-3.5802,-3.5807,-3.5811,0,0,0,0,0,0,0,0,0,0,0,0,0,-3.5882,-3.5853,-3.5977,-3.5898,-3.589,-3.5974,-3.5974,-3.5974,-3.5817,-3.5811,-3.5805,-3.5799,-3.5801,-3.5806,-3.5812,-3.5972,0,0,-3.583,-3.5832,0,0,0,0,0,0,0,0,-3.588,-3.5886,-3.5909,-3.5903,-3.5895,-3.5888,-3.5929,-3.5973,-3.5819,-3.5845,-3.5803,-3.5796,-3.5837,-3.5839,-3.5853,-3.5972,-3.5972,-3.583,-3.5834,-3.5836,-3.5838,0,0,0,0,0,0,0,-3.5878,-3.5886,-3.5976,-3.591,-3.5901,-3.5863,-3.5861,-3.5936,-3.5876,-3.5842,-3.5831,-3.5832,-3.5832,-3.5847,-3.5851,-3.5972,-3.583,-3.5835,-3.5839,-3.5841,-3.6224,-3.623,0,0,0,0,0,0,-3.5886,-3.5885,-3.5976,-3.5975,-3.5872,-3.5871,-3.5868,-3.5897,-3.5875,-3.5865,-3.5838,-3.5825,-3.5841,-3.5845,-3.5851,-3.6038,-3.5836,-3.5842,-3.5845,-3.6217,-3.6225,-3.6232,0,0,0,0,0,0,-3.5884,-3.5896,-3.5976,-3.5927,-3.5934,-3.5879,-3.5913,-3.59,-3.5915,-3.5871,-3.586,-3.5864,-3.5836,-3.5843,-3.5943,-3.6036,-3.5844,-3.585,-3.6209,-3.622,-3.6229,-3.6413,0,0,0,0,0,0,-3.5881,-3.5896,-3.5955,-3.593,-3.5938,-3.6068,-3.5919,-3.5905,-3.5925,-3.5909,-3.5893,-3.5885,-3.5831,-3.5935,-3.5949,-3.604,-3.5854,-3.6201,-3.6214,-3.6226,-3.6398,-3.6428,-3.6453,0,0,0,0,0,-3.5877,-3.6008,-3.5959,-3.5971,-3.6011,-3.6073,-3.6078,-3.6013,-3.5933,-3.5993,-3.5965,-3.5885,-3.6023,-3.5947,-3.5961,-3.6055,-3.6195,-3.621,-3.6225,-3.6386,-3.6422,-3.6453,0,0,0,0,0,0,-3.6047,-3.6003,-3.5949,-3.6075,-3.6079,-3.6047,-3.612,-3.6053,-3.6081,-3.6065,-3.5984,-3.5982,-3.6096,-3.6085,-3.6001,-3.6209,-3.6095,-3.6113,-3.6213,-3.6247,-3.6274,-3.6275,-3.5859,0,0,0,0,0,-3.6099,-3.6152,-3.6111,-3.6227,-3.6231,-3.6176,-3.6201,-3.615,-3.6152,-3.6153,-3.6132,-3.6138,-3.6182,-3.6213,-3.6252,-3.6395,-3.6391,-3.6467,-3.6495,-3.6517,-3.6535,-3.6612,-3.6646,-3.6282,-3.6282,-3.6281,0,0,-3.6207,-3.6189,-3.6228,-3.626,-3.6257,-3.6317,-3.6179,-3.6246,-3.6289,-3.6164,-3.6258,-3.6243,-3.6243,-3.6367,-3.642,-3.6361,-3.6635,-3.6537,-3.6555,-3.656,-3.6631,-3.6666,-3.6697,-3.6292,-3.629,-3.6289,0,0,-3.6434,-3.6426,-3.6522,-3.6522,-3.6519,-3.6481,-3.6505,-3.6483,-3.6468,-3.656,-3.6468,-3.6518,-3.6596,-3.6601,-3.6614,-3.6844,-3.6772,-3.6859,-3.7003,-3.7079,-3.7108,-3.7133,-3.7217,-3.7248,-3.6876,-3.6876,-3.6877,0,-3.657,-3.6654,-3.658,-3.6654,-3.6672,-3.6559,-3.6657,-3.666,-3.6672,-3.6687,-3.662,-3.6717,-3.6709,-3.6833,-3.6889,-3.6902,-3.6928,-3.6861,-3.711,-3.7134,-3.7156,-3.7236,-3.7268,-3.6887,-3.6886,-3.6885,-3.6884,0,-3.6821,-3.6881,-3.6959,-3.6972,-3.6997,-3.7083,-3.7023,-3.7059,-3.7006,-3.6976,-3.7073,-3.7059,-3.7094,-3.7119,-3.7068,-3.7237,-3.72,-3.7123,-3.7007,-3.7203,-3.7277,-3.7306,-3.6902,-3.6899,-3.6895,-3.6893,0,0,-3.7157,-3.7127,-3.7158,-3.7163,-3.7152,-3.7197,-3.7278,-3.7311,-3.7344,-3.7355,-3.7422,-3.7491,-3.7419,-3.7434,-3.7383,-3.7449,-3.7635,-3.7364,-3.7363,-3.7417,-3.7822,-3.7882,-3.7918,-3.7587,-3.7592,-3.7596,-3.7823,0,-3.7379,-3.7515,-3.7451,-3.7595,-3.765,-3.7544,-3.7615,-3.7617,-3.7591,-3.7635,-3.7606,-3.7657,-3.7557,-3.7566,-3.7627,-3.76,-3.7716,-3.7582,-3.7651,-3.7654,-3.7656,-3.7956,-3.8019,-3.8234,-3.7851,-3.7855,-3.7859,0,-3.7656,-3.7679,-3.7828,-3.7808,-3.7829,-3.7894,-3.7919,-3.7962,-3.7962,-3.7939,-3.7956,-3.789,-3.7969,-3.7852,-3.7961,-3.7872,-3.7896,-3.7887,-3.7893,-3.7899,-3.777,-3.7972,-3.83,-3.8333,-3.7903,-3.7899,-3.7896,0,-3.7889,-3.7956,-3.8055,-3.8062,-3.8041,-3.8089,-3.8083,-3.8076,-3.8101,-3.8123,-3.8139,-3.8171,-3.8189,-3.8216,-3.8161,-3.808,-3.8279,-3.8156,-3.8263,-3.8265,-3.8312,-3.831,-3.865,-3.8324,-3.8323,-3.8323,-3.8322,0,-3.8145,-3.8241,-3.8159,-3.8221,-3.8326,-3.8251,-3.8358,-3.834,-3.8336,-3.8392,-3.8302,-3.8357,-3.828,-3.8328,-3.8285,-3.8384,-3.8392,-3.8377,-3.8365,-3.8386,-3.8389,-3.8403,-3.8387,-3.8331,-3.8329,-3.8328,-3.8326,0,-3.8423,-3.8372,-3.8473,-3.8444,-3.8439,-3.8519,-3.8494,-3.855,-3.8518,-3.8591,-3.8604,-3.8553,-3.8605,-3.8552,-3.8601,-3.8572,-3.8705,-3.867,-3.8705,-3.8696,-3.8807,-3.8798,-3.917,-3.9216,-3.8858,-3.8862,-3.8865,0,-3.8591,-3.8663,-3.8642,-3.8673,-3.8672,-3.8723,-3.8747,-3.8677,-3.8706,-3.8712,-3.8768,-3.8812,-3.8844,-3.8933,-3.8901,-3.8939,-3.8905,-3.9033,-3.891,-3.893,-3.891,-3.8907,-3.8915,-3.9059,-3.9063,-3.9067,-3.9069,0,-3.8895,-3.8866,-3.8904,-3.8934,-3.8966,-3.8986,-3.8999,-3.903,-3.8957,-3.8995,-3.9047,-3.9072,-3.9121,-3.9167,-3.9195,-3.9189,-3.9119,-3.9108,-3.9135,-3.9159,-3.9177,-3.9171,-3.8776,-3.91,-3.9097,-3.9095,-3.9093,-3.9092,-3.9125,-3.9184,-3.9179,-3.9225,-3.9227,-3.9242,-3.9294,-3.9267,-3.9309,-3.9343,-3.9299,-3.9364,-3.9363,-3.9393,-3.9396,-3.9446,-3.9393,-3.9431,-3.9442,-3.9453,-3.947,-3.9167,-3.9451,-3.945,-3.9449,-3.9448,-3.9448,0,-3.9426,-3.9417,-3.946,-3.9481,-3.9518,-3.9446,-3.9458,-3.9493,-3.9551,-3.9556,-3.9589,-3.965,-3.9694,-3.9666,-3.9704,-3.975,-3.9719,-3.9762,-3.976,-3.976,-3.9515,-3.9489,-3.9787,-3.9787,-3.9787,-3.9787,-3.9787,-3.9787,-3.9587,-3.9684,-3.9655,-3.9753,-3.9744,-3.9806,-3.9819,-3.9833,-3.9836,-3.9908,-3.9944,-3.9924,-3.9917,-3.9954,-3.9992,-3.9982,-4.0002,-4.0058,-4.0038,-3.981,-3.9777,-3.9745,-3.972,-4.0062,-4.0062,-4.0278,-4.028,-4.0281]},{"header":{"parameterUnit":"m.s-1","parameterCategory":1,"la1":30.2991,"la2":30.254,"lo1":-89.0895,"lo2":-89.0444,"dy":0.0017,"dx":0.0017,"nx":28,"ny":28,"refTime":"2025-12-17T03:00:00:Z","depth":0,"parameterNumber":3,"parameterNumberName":"V-component_of_WINDS"},"data":[0,0,0,0,0,0,0,0,0,0,0,0,0,0,0,0,0,0,0,0,0,0,0,0,0,0,0,0,0,0,0,0,0,0,0,0,0,0,0,0,0,0,0,0,0,0,0,0,0,0,0,0,0,0,0,0,0,0,-3.299,-3.299,0,-3.2962,-3.2961,-3.2961,-3.2861,-3.2859,-3.2857,-3.2854,-3.2826,-3.2827,-3.2829,0,0,0,0,0,0,0,0,0,0,0,0,0,-3.2957,-3.2958,-3.299,-3.299,-3.2989,-3.2962,-3.2961,-3.2961,-3.2861,-3.2859,-3.2856,-3.2853,-3.2826,-3.2827,-3.2829,0,0,0,0,0,0,0,0,0,0,0,0,0,-3.2955,-3.2959,-3.299,-3.2936,-3.2931,-3.2962,-3.2961,-3.2961,-3.2862,-3.2859,-3.2855,-3.2852,-3.2825,-3.2827,-3.2829,-3.2909,0,0,-3.2835,-3.2836,0,0,0,0,0,0,0,0,-3.2955,-3.2956,-3.2945,-3.294,-3.2935,-3.2911,-3.2939,-3.2944,-3.2863,-3.2888,-3.2854,-3.285,-3.2857,-3.2856,-3.2859,-3.2908,-3.2907,-3.2835,-3.2837,-3.2838,-3.2838,0,0,0,0,0,0,0,-3.2955,-3.2957,-3.2979,-3.2945,-3.2938,-3.2913,-3.2909,-3.294,-3.2892,-3.2886,-3.2879,-3.2877,-3.2854,-3.2857,-3.2857,-3.2906,-3.2835,-3.2837,-3.2838,-3.2839,-3.3018,-3.3021,0,0,0,0,0,0,-3.2963,-3.2957,-3.298,-3.2978,-3.2937,-3.2917,-3.2912,-3.2922,-3.2892,-3.2884,-3.2879,-3.2872,-3.2855,-3.2855,-3.2856,-3.2946,-3.2837,-3.2839,-3.2841,-3.3014,-3.3019,-3.3022,0,0,0,0,0,0,-3.2963,-3.2966,-3.2981,-3.2966,-3.2966,-3.2921,-3.2933,-3.2924,-3.2926,-3.2887,-3.2878,-3.2891,-3.2852,-3.2853,-3.2896,-3.2944,-3.284,-3.2842,-3.301,-3.3016,-3.302,-3.3129,0,0,0,0,0,0,-3.2962,-3.2967,-3.2997,-3.2967,-3.2967,-3.3023,-3.2936,-3.2925,-3.293,-3.292,-3.2895,-3.2888,-3.285,-3.2894,-3.2898,-3.2945,-3.2844,-3.3006,-3.3013,-3.3019,-3.3121,-3.3137,-3.3151,0,0,0,0,0,-3.2961,-3.3029,-3.2999,-3.3002,-3.3004,-3.3025,-3.3025,-3.2979,-3.2934,-3.2964,-3.2938,-3.2889,-3.2938,-3.2899,-3.2903,-3.2951,-3.3002,-3.3011,-3.3018,-3.3114,-3.3134,-3.3151,0,0,0,0,0,0,-3.3067,-3.3025,-3.2991,-3.3051,-3.3042,-3.3009,-3.3045,-3.3002,-3.3007,-3.2997,-3.2941,-3.2936,-3.2987,-3.2973,-3.2931,-3.3026,-3.2962,-3.2971,-3.3033,-3.3051,-3.3066,-3.3068,-3.2845,0,0,0,0,0,-3.3097,-3.3118,-3.308,-3.3137,-3.3134,-3.3091,-3.3098,-3.3063,-3.3052,-3.3049,-3.3026,-3.3017,-3.303,-3.304,-3.305,-3.3118,-3.311,-3.3153,-3.3168,-3.3181,-3.3189,-3.3222,-3.324,-3.3048,-3.3048,-3.3048,0,0,-3.316,-3.3139,-3.3156,-3.3157,-3.3147,-3.3169,-3.3088,-3.3116,-3.3132,-3.3053,-3.3092,-3.3075,-3.3061,-3.3117,-3.314,-3.3107,-3.324,-3.3191,-3.3201,-3.3203,-3.3232,-3.325,-3.3266,-3.3054,-3.3053,-3.3052,0,0,-3.3285,-3.3273,-3.3317,-3.3308,-3.3292,-3.3262,-3.3273,-3.3245,-3.3231,-3.3269,-3.321,-3.3227,-3.3252,-3.3244,-3.3243,-3.3363,-3.3318,-3.3368,-3.3447,-3.348,-3.3495,-3.3508,-3.355,-3.3565,-3.3377,-3.3377,-3.3377,0,-3.3365,-3.3396,-3.3346,-3.3376,-3.3378,-3.3307,-3.3351,-3.3344,-3.3334,-3.3336,-3.3299,-3.3326,-3.3313,-3.3364,-3.3393,-3.3396,-3.3405,-3.3371,-3.3497,-3.351,-3.3521,-3.356,-3.3576,-3.3383,-3.3383,-3.3382,-3.3382,0,-3.3495,-3.3517,-3.3555,-3.3545,-3.3551,-3.3589,-3.3543,-3.3555,-3.3519,-3.3493,-3.3532,-3.3512,-3.3516,-3.3526,-3.3492,-3.3572,-3.3552,-3.3507,-3.3441,-3.3546,-3.3582,-3.3596,-3.3392,-3.339,-3.3388,-3.3387,0,0,-3.3687,-3.3646,-3.3661,-3.3654,-3.3631,-3.3648,-3.3681,-3.3684,-3.3695,-3.369,-3.3715,-3.3737,-3.3694,-3.3694,-3.3658,-3.3687,-3.3781,-3.3638,-3.3636,-3.3664,-3.3866,-3.3899,-3.3917,-3.3751,-3.3753,-3.3755,-3.3867,0,-3.3804,-3.3859,-3.3814,-3.3877,-3.3896,-3.3828,-3.3857,-3.3845,-3.3822,-3.3834,-3.3808,-3.3823,-3.3767,-3.3765,-3.3791,-3.3764,-3.3821,-3.3756,-3.3773,-3.3775,-3.3778,-3.3936,-3.3972,-3.4078,-3.388,-3.3883,-3.3884,0,-3.395,-3.3949,-3.4014,-3.3984,-3.3991,-3.4018,-3.4015,-3.4029,-3.4014,-3.3994,-3.3993,-3.3948,-3.3978,-3.3915,-3.3955,-3.3911,-3.3916,-3.3904,-3.3907,-3.3906,-3.3835,-3.3938,-3.411,-3.4126,-3.3906,-3.3904,-3.3903,0,-3.4081,-3.4097,-3.4137,-3.4134,-3.4101,-3.4121,-3.4108,-3.409,-3.4094,-3.4092,-3.4094,-3.4096,-3.4097,-3.41,-3.4057,-3.4015,-3.4102,-3.4035,-3.4086,-3.4087,-3.4107,-3.4106,-3.4281,-3.4112,-3.4112,-3.4111,-3.4111,0,-3.4217,-3.4259,-3.4195,-3.422,-3.4264,-3.4211,-3.4256,-3.4236,-3.422,-3.4239,-3.4181,-3.42,-3.4143,-3.4156,-3.4123,-3.416,-3.4161,-3.4146,-3.4136,-3.415,-3.4152,-3.4152,-3.4143,-3.4116,-3.4115,-3.4114,-3.4113,0,-3.4371,-3.433,-3.4369,-3.4334,-3.4326,-3.436,-3.433,-3.4351,-3.4322,-3.4347,-3.435,-3.4306,-3.4318,-3.4275,-3.4281,-3.4258,-3.4313,-3.4292,-3.4318,-3.4311,-3.4363,-3.4358,-3.4543,-3.4564,-3.4384,-3.4385,-3.4387,0,-3.446,-3.449,-3.4458,-3.4466,-3.4456,-3.447,-3.4473,-3.4422,-3.4427,-3.4412,-3.4434,-3.4441,-3.4444,-3.4466,-3.4435,-3.4438,-3.4416,-3.448,-3.4416,-3.4428,-3.4415,-3.4413,-3.4415,-3.4493,-3.4496,-3.4497,-3.4499,0,-3.4621,-3.4599,-3.4605,-3.4605,-3.461,-3.4607,-3.4601,-3.4611,-3.4555,-3.4564,-3.4575,-3.4577,-3.4582,-3.4589,-3.4585,-3.4571,-3.4526,-3.4519,-3.4531,-3.4545,-3.4558,-3.455,-3.4353,-3.4515,-3.4514,-3.4512,-3.4512,-3.4511,-3.4744,-3.4767,-3.4747,-3.4756,-3.4745,-3.4739,-3.4757,-3.473,-3.4738,-3.4737,-3.4706,-3.4723,-3.4705,-3.4696,-3.4686,-3.4698,-3.4668,-3.4686,-3.469,-3.4694,-3.4702,-3.4557,-3.4698,-3.4697,-3.4697,-3.4696,-3.4696,0,-3.4901,-3.4884,-3.4893,-3.4884,-3.4891,-3.4847,-3.4836,-3.4845,-3.486,-3.4847,-3.4851,-3.4862,-3.4869,-3.4837,-3.4839,-3.4854,-3.4833,-3.4856,-3.4854,-3.4851,-3.473,-3.4719,-3.4873,-3.4873,-3.4873,-3.4873,-3.4873,-3.4873,-3.4983,-3.5019,-3.4994,-3.5023,-3.5006,-3.5021,-3.5019,-3.5013,-3.5002,-3.5018,-3.5022,-3.5001,-3.498,-3.498,-3.4983,-3.4974,-3.4976,-3.5007,-3.499,-3.4877,-3.486,-3.4844,-3.4833,-3.5008,-3.5008,-3.5109,-3.511,-3.5111]}]]